Location: Chaumontel
(49.1247°N, 2.4324°E)
Time: 06:13:18
(UTC+00:00)

COSMOS 2428 - Pass Details

Date: 05 August 2024
Orbit: 842 x 857 km, 70.9° (Epoch: 08 September)

Event Time Altitude Azimuth Distance (km) Brightness Sun altitude
Exits shadow 01:29:48 - 137° (SE) 2,719 5.1 -20.8°
Reaches altitude 10° 01:30:59 10° 128° (SE) 2,465 5.0 -20.7°
Maximum altitude 01:33:51 14° 97° (E) 2,177 5.0 -20.5°
Drops below altitude 10° 01:36:45 10° 66° (ENE) 2,479 5.8 -20.3°
Sets 01:40:22 0° 43° (NE) 3,425 7.2 -20.1°
